When you browse on this site, cookies collect data to enhance your experience and personalize the content and advertising you see.
Visit our Privacy Policy to learn more. By continuing to use the site, you agree to this use of cookies and data.
  • In Czech Republic
  • List of Countries
  • For 7 days
  • Water Temperature
  • Weather Map
  • Weather Widgets
  • user-avatar
    Login

    Hourly Weather Hamilton

    Today, 17 September, Tuesday

    Time Temperature Precipitation Wind Pressure Humidity
    00:00 +16°C° 0 mm 2 mps 751 mmHg 72%
    01:00 +16°C° 0 mm 2 mps 751 mmHg 70%
    02:00 +15°C° 0 mm 2 mps 751 mmHg 69%
    03:00 +15°C° 0 mm 2 mps 750 mmHg 69%
    04:00 +14°C° 0 mm 2 mps 750 mmHg 68%
    05:00 +14°C° 0 mm 2 mps 751 mmHg 69%
    06:00 +14°C° 0 mm 2 mps 751 mmHg 69%
    07:00 +14°C° 0 mm 2 mps 752 mmHg 70%
    08:00 +16°C° 0 mm 2 mps 752 mmHg 64%
    09:00 +18°C° 0 mm 3 mps 752 mmHg 59%
    10:00 +20°C° 0 mm 3 mps 752 mmHg 54%
    11:00 +21°C° 0 mm 3 mps 752 mmHg 52%
    12:00 +22°C° 0 mm 3 mps 752 mmHg 50%
    13:00 +24°C° 0 mm 3 mps 752 mmHg 47%
    14:00 +22°C° 0 mm 3 mps 752 mmHg 48%
    15:00 +22°C° 0 mm 3 mps 751 mmHg 49%
    16:00 +22°C° 0 mm 3 mps 751 mmHg 50%
    17:00 +20°C° 0 mm 2 mps 751 mmHg 55%
    18:00 +19°C° 0 mm 2 mps 751 mmHg 59%
    19:00 +17°C° 0 mm 2 mps 751 mmHg 63%
    20:00 +16°C° 0 mm 2 mps 751 mmHg 64%
    21:00 +16°C° 0 mm 2 mps 752 mmHg 66%
    22:00 +16°C° 0 mm 2 mps 752 mmHg 67%
    23:00 +16°C° 0 mm 1 mps 752 mmHg 69%

    Tomorrow, 18 September, Wednesday

    Time Temperature Precipitation Wind Pressure Humidity
    00:00 +15°C° 0 mm 1 mps 752 mmHg 70%
    01:00 +15°C° 0 mm 1 mps 752 mmHg 72%
    02:00 +15°C° 0 mm 1 mps 752 mmHg 72%
    03:00 +15°C° 0 mm 2 mps 752 mmHg 73%
    04:00 +14°C° 0 mm 2 mps 752 mmHg 73%
    05:00 +15°C° 0 mm 2 mps 752 mmHg 73%
    06:00 +15°C° 0 mm 2 mps 752 mmHg 73%
    07:00 +15°C° 0 mm 2 mps 753 mmHg 73%
    08:00 +17°C° 0 mm 2 mps 753 mmHg 66%
    09:00 +18°C° 0 mm 3 mps 753 mmHg 59%
    10:00 +20°C° 0 mm 4 mps 753 mmHg 52%
    11:00 +21°C° 0 mm 4 mps 753 mmHg 51%
    12:00 +22°C° 0 mm 4 mps 753 mmHg 50%
    13:00 +22°C° 0 mm 4 mps 753 mmHg 49%
    14:00 +22°C° 0 mm 4 mps 753 mmHg 52%
    15:00 +21°C° 0 mm 4 mps 752 mmHg 54%
    16:00 +21°C° 0 mm 4 mps 752 mmHg 56%
    17:00 +20°C° 0 mm 4 mps 752 mmHg 62%
    18:00 +18°C° 0 mm 4 mps 752 mmHg 68%
    19:00 +15°C° 0 mm 4 mps 752 mmHg 75%
    20:00 +16°C° 0 mm 3 mps 752 mmHg 76%
    21:00 +16°C° 0 mm 3 mps 752 mmHg 77%
    22:00 +16°C° 0 mm 3 mps 752 mmHg 78%
    23:00 +16°C° 0 mm 3 mps 752 mmHg 79%

    Day after tomorrow, 19 September, Thursday

    Time Temperature Precipitation Wind Pressure Humidity
    00:00 +15°C° 0 mm 2 mps 752 mmHg 80%
    01:00 +15°C° 0 mm 2 mps 752 mmHg 80%
    02:00 +15°C° 0 mm 2 mps 752 mmHg 82%
    03:00 +15°C° 0 mm 2 mps 752 mmHg 83%
    04:00 +15°C° 0 mm 2 mps 752 mmHg 84%
    05:00 +15°C° 0 mm 2 mps 752 mmHg 84%
    06:00 +16°C° 0 mm 2 mps 752 mmHg 84%
    07:00 +16°C° 0 mm 2 mps 752 mmHg 84%
    08:00 +18°C° 0 mm 3 mps 753 mmHg 77%
    09:00 +19°C° 0 mm 3 mps 753 mmHg 70%
    10:00 +21°C° 0 mm 4 mps 753 mmHg 63%
    11:00 +22°C° 0 mm 4 mps 753 mmHg 61%
    12:00 +23°C° 0 mm 4 mps 753 mmHg 59%
    13:00 +25°C° 0 mm 4 mps 752 mmHg 57%
    14:00 +25°C° 0 mm 4 mps 752 mmHg 58%
    15:00 +25°C° 0 mm 3 mps 752 mmHg 59%
    16:00 +25°C° 0 mm 3 mps 752 mmHg 59%
    17:00 +22°C° 0 mm 3 mps 752 mmHg 66%
    18:00 +21°C° 0 mm 2 mps 752 mmHg 72%
    19:00 +19°C° 0 mm 2 mps 752 mmHg 79%
    20:00 +19°C° 0 mm 2 mps 752 mmHg 80%
    21:00 +18°C° 0 mm 2 mps 752 mmHg 81%
    22:00 +18°C° 0 mm 2 mps 752 mmHg 82%
    23:00 +18°C° 0 mm 2 mps 752 mmHg 84%

    20 September, Friday

    Time Temperature Precipitation Wind Pressure Humidity
    00:00 +18°C° 0 mm 2 mps 752 mmHg 85%
    01:00 +17°C° 0 mm 2 mps 752 mmHg 86%
    02:00 +17°C° 0 mm 2 mps 752 mmHg 86%
    03:00 +17°C° 0 mm 2 mps 752 mmHg 86%
    04:00 +17°C° 0 mm 2 mps 752 mmHg 86%
    05:00 +17°C° 0 mm 2 mps 752 mmHg 86%
    06:00 +17°C° 0 mm 2 mps 752 mmHg 86%
    07:00 +17°C° 0 mm 2 mps 752 mmHg 86%
    08:00 +19°C° 0 mm 2 mps 753 mmHg 79%
    09:00 +21°C° 0 mm 2 mps 753 mmHg 71%
    10:00 +24°C° 0 mm 2 mps 753 mmHg 64%
    11:00 +25°C° 0 mm 3 mps 753 mmHg 61%
    12:00 +26°C° 0 mm 3 mps 752 mmHg 58%
    13:00 +28°C° 0 mm 3 mps 752 mmHg 54%
    14:00 +27°C° 0 mm 3 mps 752 mmHg 55%
    15:00 +27°C° 0 mm 3 mps 751 mmHg 55%
    16:00 +27°C° 0 mm 3 mps 751 mmHg 55%
    17:00 +25°C° 0 mm 2 mps 751 mmHg 61%
    18:00 +24°C° 0 mm 2 mps 751 mmHg 67%
    19:00 +21°C° 0 mm 2 mps 751 mmHg 73%
    20:00 +21°C° 0 mm 1 mps 751 mmHg 74%
    21:00 +21°C° 0 mm 1 mps 751 mmHg 76%
    22:00 +20°C° 0 mm 1 mps 752 mmHg 78%
    23:00 +20°C° 0 mm 1 mps 751 mmHg 80%

    21 September, Saturday

    Time Temperature Precipitation Wind Pressure Humidity
    00:00 +19°C° 0 mm 1 mps 751 mmHg 82%
    01:00 +19°C° 0 mm 1 mps 751 mmHg 84%
    02:00 +19°C° 0 mm 1 mps 751 mmHg 87%
    03:00 +19°C° 0 mm 1 mps 751 mmHg 89%
    04:00 +19°C° 0 mm 1 mps 751 mmHg 91%
    05:00 +20°C° 0 mm 1 mps 751 mmHg 93%
    06:00 +19°C° 0 mm 2 mps 751 mmHg 94%
    07:00 +20°C° 0 mm 2 mps 751 mmHg 95%
    08:00 +21°C° 0.1 mm 2 mps 751 mmHg 90%
    09:00 +24°C° 0.1 mm 3 mps 751 mmHg 85%
    10:00 +26°C° 0.1 mm 4 mps 751 mmHg 79%
    11:00 +27°C° 0.4 mm 4 mps 751 mmHg 75%
    12:00 +28°C° 0.4 mm 4 mps 750 mmHg 70%
    13:00 +29°C° 0.4 mm 5 mps 750 mmHg 65%
    14:00 +28°C° 0.1 mm 5 mps 750 mmHg 65%
    15:00 +28°C° 0.1 mm 5 mps 749 mmHg 64%
    16:00 +28°C° 0.1 mm 5 mps 749 mmHg 64%
    17:00 +26°C° 0 mm 5 mps 749 mmHg 69%
    18:00 +23°C° 0 mm 4 mps 749 mmHg 74%
    19:00 +21°C° 0 mm 3 mps 748 mmHg 79%
    20:00 +21°C° 0 mm 3 mps 748 mmHg 82%
    21:00 +20°C° 0 mm 4 mps 748 mmHg 85%
    22:00 +20°C° 0 mm 4 mps 748 mmHg 88%
    23:00 +20°C° 0 mm 4 mps 748 mmHg 88%

    22 September, Sunday

    Time Temperature Precipitation Wind Pressure Humidity
    00:00 +21°C° 0 mm 4 mps 748 mmHg 87%
    01:00 +21°C° 0 mm 4 mps 748 mmHg 87%
    02:00 +21°C° 0 mm 4 mps 747 mmHg 87%
    03:00 +21°C° 0 mm 4 mps 747 mmHg 86%
    04:00 +21°C° 0 mm 4 mps 747 mmHg 86%
    05:00 +21°C° 0 mm 5 mps 747 mmHg 84%
    06:00 +21°C° 0 mm 5 mps 746 mmHg 82%
    07:00 +21°C° 0 mm 5 mps 746 mmHg 80%
    08:00 +22°C° 0 mm 6 mps 746 mmHg 76%
    09:00 +24°C° 0 mm 6 mps 746 mmHg 72%
    10:00 +26°C° 0 mm 7 mps 746 mmHg 68%
    11:00 +26°C° 0 mm 7 mps 746 mmHg 67%
    12:00 +27°C° 0 mm 7 mps 745 mmHg 67%
    13:00 +27°C° 0 mm 8 mps 745 mmHg 66%
    14:00 +27°C° 0 mm 8 mps 744 mmHg 67%
    15:00 +26°C° 0 mm 7 mps 744 mmHg 67%
    16:00 +26°C° 0 mm 7 mps 744 mmHg 68%
    17:00 +24°C° 0.2 mm 7 mps 744 mmHg 73%
    18:00 +23°C° 0.2 mm 6 mps 744 mmHg 78%
    19:00 +23°C° 0.2 mm 5 mps 744 mmHg 83%
    20:00 +21°C° 0.5 mm 4 mps 744 mmHg 85%
    21:00 +20°C° 0.5 mm 4 mps 744 mmHg 88%
    22:00 +19°C° 0.5 mm 3 mps 744 mmHg 90%
    23:00 +18°C° 1.4 mm 3 mps 744 mmHg 91%
    Show more